Regional Weather Roundup
Issued by NWS

Home | Current Version | Previous Version | Text Only | Print | Product List | Glossary On
Versions: 1 2 3 4 5 6 7 8 9 10 11 12 13 14 15 16 17 18 19 20 21 22 23 24 25 26 27 28 29 30 31 32 33 34 35 36 37 38 39 40 41 42 43 44 45 46 47 48 49 50
000
ASUS43 KBIS 220710
RWRND

NORTH DAKOTA REGIONAL WEATHER ROUNDUP
NATIONAL WEATHER SERVICE BISMARCK ND
100 AM CST WED NOV 22 2017

NOTE: "FAIR" INDICATES FEW OR NO CLOUDS BELOW 12,000 FEET WITH NO
SIGNIFICANT WEATHER AND/OR OBSTRUCTIONS TO VISIBILITY.


NDZ001>003-009>011-017-220800-
NORTHWEST NORTH DAKOTA

CITY           SKY/WX    TMP DP  RH WIND       PRES   REMARKS
WILLISTON      CLOUDY    15   4  61 CALM      30.06F
MINOT          CLOUDY     9   3  77 SE7       30.15F WCI  -2
MINOT AFB      CLOUDY     7   2  79 SE6       30.13F WCI  -3
$$

NDZ018>021-031>035-040>046-220800-
SOUTHWEST NORTH DAKOTA

CITY           SKY/WX    TMP DP  RH WIND       PRES   REMARKS
BISMARCK       CLOUDY     9   5  84 E5        30.23F WCI   1
DICKINSON      CLOUDY    22   8  55 S15       30.05F WCI   9
GARRISON         N/A     14  11  87 S8        30.15F WCI   3
HETTINGER ARPT CLOUDY    15   4  61 S5        30.14F WCI   8
$$

NDZ004>008-012>016-024-026-027-054-220800-
NORTHEAST NORTH DAKOTA

CITY           SKY/WX    TMP DP  RH WIND       PRES   REMARKS
GRAND FORKS    CLOUDY     8   5  87 S6        30.30F WCI  -2
GRND FRKS AFB  CLEAR     10   5  81 SW8       30.29F WCI  -3
DEVILS LAKE    CLEAR      8   4  83 SW3       30.23F
$$

NDZ022-023-025-028>030-036>039-047>053-220800-
SOUTHEAST NORTH DAKOTA

CITY           SKY/WX    TMP DP  RH WIND       PRES   REMARKS
FARGO          CLOUDY    11   7  84 SW6       30.34S WCI   1
JAMESTOWN      CLOUDY     4   1  88 S5        30.26F WCI  -5
$$





USA.gov is the U.S. government's official web portal to all federal, state and local government web resources and services.